Zurück zum Katalog

ARIANE 2 DEB

LostGTO
NORAD 27045·DEBRIS·🇫🇷 France

Gestartet Jan 27, 1989 von Guiana Space Centre

Loading…

TLE

VeraltetSource: Space-Track

Epoche: Oct 2, 2017, 13:50 UTC

1 27045U 89006AA  17275.57644405  .00000002  00000-0  00000+0 0  9999
2 27045   8.7522 352.4465 7119421 296.8849   9.1324  2.25335763131611

Verfolge ARIANE 2 DEB in Echtzeit mit AllMySat

Download on the App Store